TimeCST,TemperatureF,Dew PointF,Humidity,Sea Level PressureIn,VisibilityMPH,Wind Direction,Wind SpeedMPH,Gust SpeedMPH,PrecipitationIn,Events,Conditions,WindDirDegrees,DateUTC
12:57 AM,61.2,57.6,88,30.00,10.0,East,4.6,-,N/A,,Partly Cloudy,80,2012-12-07 06:57:00
1:56 AM,62.1,58.8,89,30.00,10.0,ENE,4.6,-,N/A,,Clear,70,2012-12-07 07:56:00
2:56 AM,60.8,58.1,91,29.98,10.0,ENE,4.6,-,N/A,,Partly Cloudy,60,2012-12-07 08:56:00
4:57 AM,59.9,57.9,93,30.00,10.0,ENE,4.6,-,N/A,,Mostly Cloudy,70,2012-12-07 10:57:00
5:59 AM,60.4,58.5,93,30.01,10.0,East,8.1,-,N/A,,Overcast,90,2012-12-07 11:59:00
6:23 AM,60.8,59.0,94,30.00,10.0,East,8.1,-,N/A,,Overcast,90,2012-12-07 12:23:00
6:55 AM,60.8,58.8,93,30.03,10.0,ENE,5.8,-,N/A,,Overcast,70,2012-12-07 12:55:00
6:56 AM,60.8,59.0,94,30.03,10.0,East,8.1,-,N/A,,Overcast,80,2012-12-07 12:56:00
7:20 AM,60.8,59.0,94,30.02,2.0,East,8.1,-,N/A,,Overcast,80,2012-12-07 13:20:00
7:47 AM,60.8,59.0,94,30.02,2.0,ENE,6.9,-,N/A,,Overcast,60,2012-12-07 13:47:00
7:55 AM,60.4,59.0,95,30.04,2.0,ENE,6.9,-,N/A,,Overcast,70,2012-12-07 13:55:00
8:28 AM,60.8,59.0,94,30.03,4.0,ENE,6.9,-,N/A,,Overcast,60,2012-12-07 14:28:00
8:55 AM,61.5,60.1,95,30.06,7.0,ENE,9.2,-,N/A,,Overcast,70,2012-12-07 14:55:00
9:28 AM,62.6,60.8,94,30.04,10.0,ENE,8.1,-,N/A,,Overcast,70,2012-12-07 15:28:00
9:55 AM,63.7,60.3,89,30.06,10.0,ENE,8.1,-,N/A,,Overcast,70,2012-12-07 15:55:00
10:28 AM,64.4,60.8,88,30.02,10.0,East,6.9,-,N/A,,Mostly Cloudy,80,2012-12-07 16:28:00
10:55 AM,65.8,60.4,83,30.04,10.0,East,6.9,-,N/A,,Mostly Cloudy,100,2012-12-07 16:55:00
11:25 AM,66.2,60.8,83,30.00,10.0,ENE,6.9,-,N/A,,Mostly Cloudy,70,2012-12-07 17:25:00
11:41 AM,66.2,60.8,83,29.99,10.0,ENE,6.9,-,N/A,,Mostly Cloudy,70,2012-12-07 17:41:00
11:55 AM,66.9,60.6,80,30.00,10.0,East,6.9,-,N/A,,Mostly Cloudy,100,2012-12-07 17:55:00
12:05 PM,66.2,60.8,83,29.98,10.0,ESE,5.8,-,N/A,,Overcast,120,2012-12-07 18:05:00
12:55 PM,66.7,60.4,80,29.98,10.0,ESE,12.7,-,N/A,,Mostly Cloudy,120,2012-12-07 18:55:00
1:34 PM,66.2,60.8,83,29.95,10.0,East,8.1,-,N/A,,Overcast,90,2012-12-07 19:34:00
1:55 PM,66.6,60.6,81,29.97,10.0,ESE,8.1,-,N/A,,Overcast,110,2012-12-07 19:55:00
2:11 PM,66.2,60.8,83,29.95,10.0,East,8.1,-,N/A,,Mostly Cloudy,100,2012-12-07 20:11:00
2:55 PM,66.6,60.8,82,29.97,10.0,East,9.2,-,N/A,,Overcast,100,2012-12-07 20:55:00
3:30 PM,66.2,60.8,83,29.95,10.0,East,6.9,-,N/A,,Overcast,90,2012-12-07 21:30:00
3:55 PM,66.4,60.8,82,29.96,10.0,East,5.8,-,N/A,,Overcast,100,2012-12-07 21:55:00
4:55 PM,65.8,60.6,83,29.97,10.0,East,4.6,-,N/A,,Overcast,90,2012-12-07 22:55:00
5:55 PM,65.7,60.8,84,29.97,10.0,East,6.9,-,N/A,,Overcast,100,2012-12-07 23:55:00
6:55 PM,65.1,60.6,85,29.97,10.0,East,4.6,-,N/A,,Mostly Cloudy,90,2012-12-08 00:55:00
7:55 PM,64.8,60.8,87,29.99,10.0,East,4.6,-,N/A,,Overcast,90,2012-12-08 01:55:00
8:55 PM,64.6,60.8,88,29.99,10.0,East,3.5,-,N/A,,Overcast,80,2012-12-08 02:55:00
9:55 PM,64.8,60.6,86,30.00,10.0,ENE,5.8,-,N/A,,Mostly Cloudy,60,2012-12-08 03:55:00
10:55 PM,64.4,60.4,87,30.00,10.0,East,5.8,-,N/A,,Overcast,90,2012-12-08 04:55:00
11:55 PM,62.1,57.6,85,30.00,10.0,ENE,6.9,-,N/A,,Mostly Cloudy,60,2012-12-08 05:55:00